Presure
94 156 112 108 119 96 84 78 133 106 107 103 122 124 106 105 100 101 77 94 87 87 101 105 129 83 84 93 86 77 89 91 124 119 125 127 131 130 129 126 131 134 138 117
172 160 164 115 144 160 162 123 81 126 87 112 140 120 101 133 101 99 101 102 88 133 106 84 84 85 130 84 91 86 84 94 134 135 139 138 135 132 139 120 122 120 128 130
136 156 111 143 120 123 117 113 119 85 83 103 82 101 104 96 109 89 89 83 82 88 91 84 86 89 79 86 94 94 111 97 115 135 125 125 121 104 102 120 136 114 125 110
156 172 184 162 115 115 143 122 115 97 99 137 114 81 81 83 82 82 88 89 94 126 85 87 86 89 96 102 102 132 105 91 124 126 106 127 131 131 122 113 101 102 109 123
163 177 184 122 152 182 206 152 150 169 93 78 84 85 88 88 84 83 82 84 89 84 89 124 92 95 96 90 115 122 124 118 120 103 118 136 136 143 136 146 138 114 136 183
193 186 157 142 94 185 131 130 151 154 120 121 116 91 86 112 138 152 93 168 80 89 97 140 135 90 104 126 117 122 115 117 119 124 126 132 131 108 121 128 148 118 111 125
147 130 171 131 179 162 153 185 140 142 134 145 158 112 108 95 84 112 138 114 139 95 135 110 143 141 138 159 125 159 145 149 160 144 109 109 118 135 122 115 122 115 115 117
156 148 153 169 172 142 168 127 183 184 112 114 100 141 141 117 112 87 99 119 116 110 81 135 87 122 134 127 121 114 158 129 139 130 125 115 137 122 104 123 125 123 149 124
160 168 152 139 121 173 128 166 178 188 200 142 132 160 143 111 115 120 104 194 136 104 95 165 110 113 101 199 128 148 115 138 110 121 125 122 109 122 118 112 117 118 128 124
160 150 170 157 141 169 140 142 158 133 192 198 126 155 146 124 138 140 134 154 139 141 139 133 132 136 145 145 171 137 127 133 116 122 121 123 102 121 142 119 119 112 115 103
154 180 163 167 157 158 147 147 154 151 148 175 103 103 144 149 145 151 129 143 135 131 133 121 125 134 186 140 128 191 114 132 117 110 126 122 112 135 115 122 115 113 132 137
160 136 131 164 174 159 176 177 184 175 148 149 182 208 157 170 167 179 124 143 174 133 123 156 130 124 123 109 120 123 143 129 117 120 104 160 117 148 201 137 209 115 147 118
168 149 184 152 137 165 150 172 148 164 180 169 177 170 156 140 111 138 112 182 167 145 113 112 124 115 123 132 122 137 124 122 115 99 133 123 126 111 119 104 111 129 204 193
159 167 183 153 212 137 162 160 146 169 166 181 195 173 98 149 139 138 139 148 154 151 114 114 138 130 105 101 118 124 115 123 126 121 128 119 123 113 163 124 121 176 142 146
147 148 183 157 132 213 179 174 147 181 169 189 167 164 194 140 196 141 140 119 159 151 127 167 173 143 133 124 135 127 134 113 130 131 139 148 114 172 116 152 198 161 144 177
252 188 255 174 206 205 207 175 140 155 107 139 123 172 166 173 180 208 211 156 136 145 130 180 150 196 198 177 179 116 175 133 141 173 152 147 116 118 161 150 109 120 151 168
245 271 257 260 189 193 224 127 126 192 186 182 154 164 113 174 142 137 180 189 187 151 138 209 198 130 156 125 166 169 114 182 142 140 129 144 150 173 153 132 136 149 161 122
256 259 221 251 233 153 268 211 164 220 165 130 190 177 149 179 193 138 136 173 191 181 156 138 134 161 157 156 113 179 126 161 182 164 110 143 105 158 159 123 157 156 170 148
256 261 254 252 114 267 129 269 264 172 268 254 173 256 257 150 160 172 181 146 176 243 201 130 151 154 168 190 163 226 122 130 179 166 125 165 123 123 170 127 182 129 125 200
248 242 247 259 256 184 251 257 258 258 109 241 230 267 196 260 282 263 257 237 179 263 272 213 135 131 128 125 199 187 193 201 175 167 128 212 128 134 189 98 173 109 124 161
239 240 225 229 253 260 246 240 241 239 225 233 91 235 139 157 285 159 268 260 215 207 268 249 197 130 134 139 139 198 194 186 225 222 129 173 168 147 133 170 133 166 166 119
239 244 238 248 242 239 239 245 240 238 233 231 161 258 180 305 67 297 293 283 273 268 270 268 262 206 137 143 120 252 121 101 204 141 208 184 134 176 126 144 185 121 175 183
236 225 232 231 244 225 229 254 246 239 240 226 228 226 100 291 297 308 291 271 261 259 138 261 265 110 152 252 242 217 242 240 115 208 103 211 206 201 168 185 178 123 120 118
226 240 226 279 247 208 223 226 243 228 227 234 227 234 272 283 277 295 297 265 255 230 247 245 246 247 226 239 161 253 246 237 201 208 208 192 129 126 215 229 210 134 109 196
213 238 243 221 223 241 221 212 218 233 219 222 229 222 262 274 270 266 263 269 256 244 237 239 236 234 236 234 236 228 227 231 226 218 220 193 169 213 171 153 201 207 208 204
255 266 230 228 252 238 232 252 220 230 219 217 223 216 238 251 264 280 252 247 244 248 244 239 234 233 233 228 229 229 226 217 220 225 226 224 220 219 216 211 208 205 205 209
Wind_Speed
69 93 92 86 91 70 62 52 87 66 66 62 73 70 61 57 58 58 44 52 47 45 53 54 56 36 36 42 35 37 45 48 52 55 51 49 45 48 48 48 48 45 44 51
89 96 101 78 100 92 94 86 56 82 56 70 84 71 59 72 59 57 58 59 51 62 58 47 42 40 59 40 46 39 42 49 53 50 50 51 50 50 50 51 51 51 51 50
104 102 97 103 87 91 85 81 82 63 61 70 60 62 65 63 64 59 61 58 54 52 55 47 47 50 38 43 55 54 56 53 52 54 53 52 52 51 56 53 54 55 55 59
99 96 100 99 83 89 102 94 84 72 69 83 75 64 70 67 66 67 67 66 60 69 53 53 49 54 61 52 65 61 54 49 57 57 59 57 57 55 57 60 58 59 60 59
100 102 107 112 103 96 107 100 98 95 74 62 73 76 75 74 73 67 59 59 64 52 61 71 59 61 64 57 65 67 61 61 62 63 60 61 59 61 62 66 64 65 65 66
118 108 103 93 75 101 84 86 101 98 90 86 86 82 75 87 91 79 56 83 47 65 66 76 76 51 70 69 72 69 69 66 65 65 64 64 62 64 68 71 72 66 64 66
110 90 95 81 97 96 98 104 101 98 90 91 94 87 97 80 71 82 84 79 82 71 79 74 79 76 76 76 70 78 70 72 74 71 68 67 65 65 62 67 68 69 72 71
114 118 106 98 103 90 104 103 113 112 96 96 87 87 92 97 92 78 87 84 85 84 49 80 53 74 74 73 71 75 80 70 67 65 67 72 70 67 70 70 68 71 85 76
119 114 121 105 89 107 79 113 107 112 118 99 98 99 95 100 99 96 87 100 86 86 74 89 77 81 77 87 80 72 78 70 78 74 70 71 77 77 76 75 76 77 80 79
115 112 116 118 100 110 96 94 100 77 110 115 100 102 100 105 101 93 92 89 93 91 86 91 83 74 82 74 96 70 72 78 80 75 76 85 74 80 86 81 82 81 83 75
118 132 118 114 119 120 104 103 104 90 91 103 90 95 100 104 103 105 98 86 90 89 88 87 83 81 90 86 72 84 82 77 80 86 81 82 88 89 88 84 85 84 96 101
126 87 86 125 133 124 123 117 117 109 95 95 107 126 114 108 106 110 100 92 103 88 91 87 91 86 86 84 81 83 86 77 85 84 82 94 91 103 102 93 101 91 108 96
136 118 130 118 84 110 112 123 109 114 113 112 106 103 113 104 85 95 103 115 106 89 94 94 89 86 87 94 89 90 85 87 92 74 93 92 95 90 93 77 89 87 105 105
125 130 142 121 133 92 122 107 90 106 87 110 116 111 99 113 103 105 93 95 99 100 99 99 88 84 83 74 94 91 92 95 99 97 98 97 100 96 97 103 95 102 107 105
96 105 143 114 110 142 137 125 88 117 106 122 110 108 124 93 129 109 108 85 105 96 101 109 114 106 101 100 90 96 96 99 92 100 100 102 83 101 102 104 109 96 106 105
114 139 113 133 144 145 144 131 73 114 95 66 89 125 128 125 123 133 135 122 86 95 96 118 94 127 128 112 110 105 113 96 101 103 106 103 106 109 110 106 91 112 111 110
114 103 113 108 127 149 111 93 93 131 139 131 95 120 77 109 108 82 111 123 123 110 102 134 130 101 105 109 116 116 109 116 108 104 101 108 110 114 108 106 112 111 118 118
98 99 118 105 122 107 90 86 127 128 113 99 142 141 126 114 126 98 87 109 118 123 113 96 95 110 107 112 108 126 115 117 118 116 102 116 86 117 116 114 124 119 124 121
92 92 96 97 92 78 80 82 91 84 86 96 136 92 105 114 106 83 131 98 121 116 138 109 112 114 121 135 124 120 119 116 128 123 116 122 121 123 128 116 131 114 114 127
87 89 86 75 78 84 85 81 71 78 78 88 99 79 134 98 94 92 108 120 123 109 105 110 109 112 113 115 128 139 137 126 134 131 125 121 126 127 134 73 128 84 110 128
87 85 99 95 76 68 79 82 84 91 93 74 73 64 35 86 83 111 104 107 99 95 103 102 114 108 113 111 111 114 125 112 117 115 126 128 116 129 116 126 128 123 134 115
86 86 89 77 76 79 77 71 74 78 83 86 102 67 74 55 55 68 81 86 87 89 90 94 98 105 118 119 81 101 116 80 129 97 123 111 125 130 125 117 136 113 133 139
86 89 85 87 74 84 82 65 68 76 79 91 91 87 84 54 56 60 74 82 85 83 75 84 85 92 92 89 91 118 90 105 103 124 86 121 125 131 136 137 137 120 103 109
83 78 83 67 71 92 78 80 64 77 80 78 89 74 46 51 55 59 68 76 81 84 79 79 79 81 88 83 90 76 84 93 124 112 121 126 122 101 121 117 129 104 111 134
96 79 69 81 67 65 81 88 88 79 87 84 71 80 46 48 55 57 59 63 72 78 80 76 76 80 79 82 82 88 89 88 97 107 109 106 127 120 133 132 132 127 126 129
82 79 72 69 73 69 72 61 84 80 83 82 74 76 51 49 48 56 62 67 71 71 74 76 80 80 80 83 82 82 86 96 96 94 98 103 109 112 115 121 125 128 130 131
Wind_Direction
220 223 231 233 230 228 227 223 228 229 231 232 233 234 237 236 237 241 244 247 249 250 245 246 257 256 260 267 267 268 275 278 276 279 281 281 282 285 286 289 289 290 289 295
224 222 230 225 224 231 227 229 225 230 232 233 237 232 239 241 241 242 244 245 251 252 250 260 263 266 261 270 274 268 272 279 275 278 279 281 282 284 282 288 292 292 293 293
227 223 234 227 235 232 235 234 231 228 232 235 238 235 236 241 241 244 248 249 250 250 256 261 266 267 266 276 271 274 272 278 279 278 279 280 281 282 290 288 288 289 290 292
226 228 231 226 231 235 228 234 237 230 234 232 238 238 240 242 243 244 245 247 250 250 256 258 261 264 267 266 269 265 278 274 277 279 281 284 285 286 285 284 285 289 289 288
221 227 230 232 228 236 233 232 232 238 233 241 233 239 240 242 242 248 251 252 252 253 257 254 262 265 267 270 266 265 268 278 273 278 277 284 286 287 286 289 288 286 290 293
230 228 230 239 228 233 236 237 236 234 235 236 242 240 241 244 245 249 248 258 249 259 258 254 257 264 266 260 265 265 270 272 274 277 278 281 282 280 282 286 290 286 286 288
229 237 227 235 235 233 237 237 240 235 235 234 239 242 247 246 250 246 247 249 247 256 251 258 255 257 259 265 264 271 273 275 273 279 278 278 278 284 281 280 285 283 284 285
235 229 226 231 234 232 232 237 239 241 239 235 242 234 242 247 248 252 246 248 250 254 255 255 261 258 260 261 263 268 270 271 273 273 275 277 282 278 279 281 283 281 291 284
226 228 230 238 228 235 232 234 239 240 241 236 239 242 241 249 248 250 246 253 256 255 261 250 264 263 268 266 266 270 267 271 274 274 274 274 278 277 277 280 279 280 284 284
231 229 226 230 246 236 245 243 235 236 240 240 239 240 243 245 251 242 244 247 250 251 256 254 260 260 265 263 261 267 264 266 272 272 273 276 277 273 283 277 278 283 284 283
237 232 230 238 235 239 245 247 242 243 241 238 243 247 244 246 249 250 244 243 249 253 256 258 260 264 261 266 262 267 264 268 267 270 273 272 275 279 279 280 283 284 285 288
230 230 220 232 234 237 236 238 241 243 246 244 238 240 241 246 249 253 246 245 256 244 251 252 259 262 262 262 261 262 271 264 265 266 275 274 274 281 286 286 287 286 285 287
230 241 237 233 233 236 239 239 241 241 241 242 241 238 241 246 247 247 250 256 256 256 255 259 255 258 260 261 263 269 265 264 266 272 273 270 280 281 279 285 286 286 288 291
240 237 233 231 236 244 242 242 242 248 247 244 247 242 250 246 251 250 252 258 260 252 251 254 249 262 262 265 268 259 269 266 268 272 272 273 274 279 284 280 283 288 289 290
235 232 235 245 231 237 240 242 248 246 243 248 244 246 249 249 250 250 251 251 257 258 258 265 266 254 252 254 262 254 261 270 265 263 266 270 275 282 279 277 283 285 283 285
235 236 238 242 238 239 240 244 237 243 239 236 226 248 252 251 252 254 251 255 252 259 248 265 262 267 268 270 273 262 272 271 262 276 271 269 277 276 279 277 287 282 281 284
236 236 238 238 239 240 240 245 224 247 249 251 245 251 246 249 248 248 251 255 254 251 250 258 263 264 264 251 270 271 268 271 263 272 265 270 275 281 276 270 276 279 284 281
232 232 237 236 239 236 248 240 248 249 237 234 251 253 247 252 253 255 249 254 256 255 257 251 249 261 262 268 265 274 264 274 276 274 277 271 280 278 275 273 281 279 284 282
237 237 237 240 235 247 245 249 250 248 252 255 251 258 258 247 251 255 257 254 259 255 262 248 257 259 265 268 266 259 261 262 274 273 265 276 270 271 280 270 282 272 286 278
237 238 242 242 244 244 244 245 248 253 246 260 256 259 253 258 254 252 252 255 260 256 255 255 253 253 252 256 264 270 270 265 272 273 261 263 268 271 276 279 280 291 287 283
232 234 238 240 237 237 241 243 246 251 255 255 252 253 251 253 253 256 252 254 258 262 259 260 259 259 258 258 258 254 264 260 256 257 261 267 272 270 272 277 269 283 280 285
232 232 235 234 237 239 243 247 250 251 255 258 253 253 257 254 260 248 247 252 254 256 258 257 257 258 257 259 263 256 264 268 260 270 262 263 269 270 273 279 277 289 278 282
233 237 238 238 240 242 246 244 246 250 252 259 259 258 256 269 263 258 248 249 252 255 259 259 260 270 269 262 261 256 260 257 276 262 268 262 264 266 273 272 275 284 286 290
232 235 237 238 239 244 246 249 242 248 251 254 260 263 292 276 267 263 251 248 251 256 256 258 259 260 262 261 270 264 262 260 261 262 263 266 278 281 267 267 270 276 289 276
232 244 243 236 239 247 244 246 247 241 250 253 257 262 289 278 269 261 255 250 248 249 251 253 255 256 259 260 260 259 260 261 261 261 262 267 267 267 270 276 272 272 274 275
259 259 240 237 259 248 239 257 243 239 246 252 253 258 273 278 274 266 257 250 249 250 248 248 251 253 254 256 257 258 259 260 261 262 263 264 265 267 268 269 270 272 273 275